{"data":{"norad_id":59871,"epoch":"2026-09-21T08:56:15.072288Z","epoch_age_seconds":99061,"freshness":"FRESH","line1":"1 59871U 24098P   26264.37239667  .00000341  00000+0  21913-4 0  9993","line2":"2 59871  43.0000 245.9310 0000898 282.8148  77.2604 15.27576366131853","mean_motion":15.27576366,"eccentricity":8.98e-5,"inclination_deg":43,"raan_deg":245.931,"arg_perigee_deg":282.8148,"mean_anomaly_deg":77.2604,"bstar":2.1913e-5,"rev_number":13185,"period_min":94.266972967818,"perigee_km":482.44384207596,"apogee_km":483.67611305313,"semimajor_km":6861.1969775645,"source":"CELESTRAK","updated_at":"2026-09-22T09:00:49.103210Z"}}